Theta_e
331 332 339 341 347 349 350 350 350 351 350 351 350 350 350 350 350 350 349 349 350 350 350 350 350 350 350 350 350 350 350 350 349 349 349 349 349 349 350 350 350 350 350 350 350 350 351 351 351 351 350 349 351 350 350 348 346 344 343 341 341 341 342 343 344 344 344 345 346 347 349 352 353 353 352 352 353 353 351 350 351 351 350 351 352
331 333 339 342 347 349 350 350 351 350 350 350 351 350 350 350 350 349 349 349 349 349 349 349 350 350 350 350 350 350 349 349 349 349 348 348 348 348 348 348 349 349 349 350 350 350 350 350 350 350 349 350 348 347 346 344 342 340 339 339 338 338 338 340 340 341 341 341 341 341 342 347 351 352 351 351 351 351 351 350 349 349 348 351 351
333 334 338 341 346 349 349 349 350 350 350 350 350 350 349 350 350 349 350 349 350 349 350 350 349 350 349 350 349 350 349 349 349 348 348 348 348 348 347 347 348 348 349 349 349 350 349 349 349 348 347 346 345 344 343 341 339 338 337 336 335 334 335 336 336 338 338 338 337 337 338 340 345 350 350 350 350 350 349 349 350 349 348 350 350
333 335 338 340 343 347 349 349 349 349 350 350 350 350 350 350 350 350 350 350 350 349 349 349 350 349 349 349 349 349 348 348 348 348 348 348 348 348 348 348 348 348 348 349 349 349 348 348 347 346 344 343 342 342 340 339 338 336 335 334 332 331 331 332 333 333 333 334 333 334 337 340 344 347 350 350 350 351 349 349 349 349 349 350 349
335 336 338 342 347 346 348 350 349 349 349 349 349 349 349 350 350 350 350 350 349 349 349 348 348 348 348 348 348 348 348 347 347 347 346 345 345 346 347 347 348 348 347 348 348 347 346 346 345 344 342 341 340 340 338 337 336 334 333 332 331 329 329 330 332 330 330 330 329 331 334 337 341 342 349 350 349 350 350 349 349 350 349 349 349
335 336 339 342 345 346 346 348 349 349 349 349 348 348 349 349 349 350 350 350 349 349 349 348 348 348 348 347 348 348 347 346 345 345 345 344 345 345 346 346 347 347 347 347 346 346 345 344 343 342 340 339 338 337 336 335 334 333 332 330 329 328 329 331 330 328 326 325 326 332 334 336 337 341 347 349 349 348 349 348 348 349 349 349 349
335 337 339 341 343 345 345 348 349 349 349 349 349 349 349 349 348 348 348 348 348 348 348 348 348 347 347 347 347 347 346 345 344 344 343 343 343 345 345 345 345 345 345 345 344 343 343 342 342 341 339 337 336 335 334 334 333 332 331 329 328 328 329 329 327 325 322 322 326 330 333 335 338 341 347 349 349 349 347 348 348 349 348 349 348
336 336 338 339 341 343 343 348 349 348 348 349 349 349 349 349 348 348 348 348 348 348 348 348 348 347 347 347 346 345 345 344 343 343 342 342 342 343 344 343 343 343 343 343 342 342 341 340 339 338 337 335 334 333 333 333 331 330 329 328 328 328 328 326 323 321 321 320 324 328 333 334 337 341 347 348 348 348 347 347 347 348 348 346 345
334 335 336 338 340 340 343 345 349 348 348 348 349 348 349 348 348 347 348 348 348 348 347 347 347 347 346 346 345 344 343 342 342 342 341 341 340 340 341 341 341 341 341 341 340 340 339 338 337 336 334 333 332 331 331 330 329 328 328 327 326 326 325 323 321 317 317 320 321 324 331 333 335 340 347 347 348 348 347 346 346 346 345 344 344
333 333 333 335 339 338 342 344 349 348 349 348 348 348 347 348 347 347 348 348 347 347 347 346 346 346 345 344 343 343 342 341 340 339 339 339 338 337 338 339 338 338 338 338 338 338 337 336 335 334 333 332 330 329 329 328 327 326 325 325 325 324 322 319 317 316 317 319 321 322 327 330 334 340 344 346 347 347 345 343 344 345 345 345 344
331 331 331 333 335 337 342 345 347 346 348 348 348 348 347 348 347 347 347 347 346 346 346 345 345 344 343 343 342 341 340 339 338 338 338 335 335 336 335 336 337 336 336 335 336 336 336 335 333 332 332 330 328 327 327 325 324 323 322 323 322 322 320 316 313 314 316 317 321 321 323 327 334 341 345 346 345 345 344 343 344 344 344 344 344
330 328 329 331 330 336 341 343 345 346 347 347 346 346 347 347 347 346 347 347 346 344 345 344 343 343 342 341 339 339 339 336 334 334 334 334 334 334 334 335 335 334 333 332 332 333 333 332 331 330 329 328 326 325 324 323 322 322 321 321 321 320 317 313 312 312 315 317 319 320 324 328 334 338 342 343 343 342 341 341 341 341 341 341 341
329 328 328 329 332 335 338 342 342 344 346 347 346 345 344 345 345 345 344 344 345 344 344 343 342 342 340 338 338 338 335 334 333 333 333 333 333 333 333 334 333 332 331 331 331 332 332 330 329 328 327 325 324 323 323 322 321 321 320 319 318 317 314 312 310 312 313 316 318 320 323 328 335 336 338 339 339 339 339 339 339 339 339 339 339
327 327 326 328 330 330 335 337 339 342 343 343 344 344 344 344 344 344 343 344 343 342 339 338 338 336 336 335 335 334 333 333 333 332 332 332 332 332 331 332 331 330 329 329 330 330 330 329 328 327 325 324 323 322 321 320 319 319 318 317 316 313 309 308 309 311 313 314 317 319 322 326 333 334 335 337 338 337 336 336 336 337 337 337 337
327 326 326 326 329 333 329 334 336 337 340 341 342 343 343 342 342 342 340 340 339 338 337 337 336 336 335 334 334 333 332 332 332 332 331 331 332 331 331 330 330 330 329 329 329 329 328 328 327 325 324 323 322 321 320 319 318 317 316 315 314 311 307 306 308 310 311 313 315 318 321 325 331 333 334 334 335 335 335 335 335 335 335 335 335
325 324 323 325 327 330 333 330 332 332 335 338 339 340 340 341 341 340 339 338 337 337 337 335 335 334 334 334 333 332 332 331 331 331 331 330 330 330 330 330 329 329 330 330 329 328 327 327 325 324 323 322 321 320 318 318 316 315 314 313 312 310 306 304 307 309 310 312 314 317 320 325 329 331 332 332 332 333 333 333 333 333 333 333 333
322 322 323 324 324 327 331 332 332 329 330 330 334 335 336 338 339 339 339 338 338 338 336 335 334 333 332 332 332 331 330 331 330 330 329 329 328 328 328 328 328 329 330 329 328 328 327 326 324 324 323 322 320 319 317 316 315 314 313 312 310 309 305 303 305 307 309 311 312 316 320 326 328 329 330 330 331 331 331 331 331 331 331 331 331
320 321 322 323 324 325 327 329 331 333 334 330 328 331 334 336 337 337 337 338 337 337 336 335 334 334 333 333 332 331 330 330 329 329 328 328 327 327 327 328 328 328 328 327 327 327 325 325 324 323 322 320 319 318 316 314 313 312 311 310 308 307 304 303 303 305 308 309 311 315 320 324 327 328 329 329 329 330 329 329 330 330 330 330 330
318 318 321 322 323 324 325 326 327 329 330 331 333 333 328 332 334 335 335 335 335 335 335 333 332 333 332 331 329 328 327 328 328 329 328 328 328 327 327 328 328 327 327 326 326 325 324 323 322 321 320 318 318 317 315 314 312 310 310 307 305 302 301 302 302 303 306 309 311 314 320 322 326 327 328 328 328 328 328 328 328 328 328 329 329
317 318 319 321 323 323 324 325 325 326 327 327 329 330 327 326 329 332 332 333 333 333 332 330 328 327 328 327 324 324 323 325 322 326 325 327 327 325 327 328 327 327 326 325 324 324 323 322 322 320 319 317 316 315 313 312 310 309 307 305 302 300 300 300 301 302 304 307 310 314 318 321 325 327 327 326 326 326 326 326 327 327 327 327 327
315 316 317 319 320 321 322 323 323 324 325 325 326 327 329 324 326 326 327 329 330 329 329 325 322 321 322 320 319 324 324 325 324 326 320 326 320 321 326 327 326 325 324 324 323 322 322 322 320 319 318 316 313 312 311 310 309 307 304 301 298 299 299 299 299 301 303 305 309 315 317 320 323 326 326 326 325 325 325 325 325 326 326 326 326
315 315 315 318 318 319 321 322 322 322 323 323 323 324 326 326 329 330 330 329 325 323 327 329 320 327 318 320 320 318 318 319 320 318 322 321 321 319 323 325 325 323 322 322 321 320 320 319 317 315 312 308 304 302 304 305 305 303 300 298 298 298 298 298 298 299 301 305 308 313 316 319 322 324 325 325 324 325 325 325 325 325 325 325 325
314 315 316 316 317 319 320 321 322 321 320 321 321 322 325 327 326 326 326 323 324 325 326 323 322 320 319 317 315 315 314 315 316 316 317 315 320 318 322 323 323 322 321 320 320 319 317 316 314 311 307 302 299 299 298 298 298 297 297 297 297 297 297 297 297 297 298 303 307 311 315 318 320 323 324 324 324 324 324 324 324 325 324 324 324
315 316 317 317 316 317 318 320 321 320 320 320 320 321 323 324 323 323 324 324 324 322 320 318 316 315 313 313 312 311 312 312 311 311 312 317 319 317 320 320 320 320 319 318 318 317 316 314 310 306 301 298 298 297 297 297 297 297 297 296 296 296 297 296 296 297 297 299 306 309 313 317 319 321 323 324 323 323 323 324 324 323 324 323 324
315 317 316 316 315 316 318 318 319 319 319 319 319 320 320 320 320 320 321 321 320 318 316 314 313 311 310 310 310 309 309 310 312 313 313 313 315 316 316 315 314 313 309 309 309 307 304 302 300 298 298 298 297 297 297 297 297 296 296 296 295 296 296 296 296 296 296 298 304 308 310 314 317 320 322 323 323 323 323 323 323 323 322 324 323
312 313 315 316 316 316 317 317 317 318 318 319 319 320 317 320 318 319 318 318 317 315 313 312 310 308 307 307 307 307 307 308 309 308 308 309 309 308 307 306 306 305 303 302 300 299 297 297 297 297 296 297 297 297 297 296 296 295 295 295 295 295 295 295 295 295 296 297 301 306 309 312 316 318 321 322 323 323 323 323 322 323 322 322 322
309 313 315 315 316 316 316 316 315 316 317 318 318 318 319 320 320 316 318 315 314 312 311 310 308 305 305 305 306 305 305 306 305 305 305 304 305 303 302 302 302 300 298 298 297 296 296 296 296 296 295 296 295 295 295 295 295 295 295 295 294 294 295 295 295 295 295 296 298 304 307 310 314 317 319 321 322 322 322 322 322 322 322 321 321
309 310 312 314 314 314 315 315 315 315 315 316 317 317 318 317 317 313 316 313 311 311 310 308 306 303 303 304 305 305 304 303 303 302 302 301 301 300 299 298 298 297 296 296 296 295 295 295 295 295 295 295 295 295 294 294 294 295 295 294 294 294 294 294 294 294 295 296 297 302 306 309 312 315 318 320 321 321 321 321 321 321 321 321 320
307 308 309 311 313 313 314 313 314 314 315 315 315 315 316 316 315 314 316 311 311 311 309 306 304 303 301 302 303 303 303 302 302 301 298 299 297 297 296 296 296 296 296 295 296 295 295 294 295 294 294 294 294 294 294 294 294 294 294 294 294 293 294 294 294 294 295 295 296 299 303 307 311 314 316 318 320 320 320 321 321 320 320 320 320
306 308 307 309 311 312 312 312 314 314 314 313 314 314 314 314 314 314 315 311 310 310 306 304 304 301 300 301 302 303 302 301 301 299 297 296 295 295 295 295 295 295 295 295 294 295 294 294 294 294 294 294 294 294 294 293 293 293 293 293 293 293 293 293 294 294 294 295 295 297 300 305 309 313 314 316 318 318 319 319 319 319 319 318 319
306 306 306 307 309 309 310 312 313 313 314 312 313 313 313 313 313 314 313 309 309 307 304 303 302 301 300 300 300 301 301 300 299 297 296 295 294 294 294 294 294 294 295 295 294 294 294 294 294 294 294 294 294 294 293 293 292 292 293 293 293 293 293 293 293 294 294 294 295 296 298 302 306 310 313 314 314 314 315 317 317 317 318 319 320
304 305 306 307 306 307 309 310 312 312 312 311 312 313 312 313 313 313 311 310 307 306 304 302 300 300 300 299 299 300 299 299 298 296 296 294 293 293 293 293 294 294 294 294 294 293 293 293 293 293 293 294 293 292 292 292 292 292 292 292 292 293 293 293 293 293 293 294 295 295 297 299 302 306 309 312 312 312 313 313 314 315 317 317 318
305 306 306 305 304 306 307 309 310 311 311 311 311 312 312 312 312 312 311 309 306 305 303 301 300 299 299 299 298 299 298 298 297 296 296 294 293 293 293 294 294 294 294 294 294 293 293 293 293 292 292 292 292 291 291 291 291 291 292 292 292 292 292 293 293 293 293 294 294 294 296 297 298 300 304 307 309 309 310 310 312 313 314 315 316
304 305 304 303 304 305 306 307 308 309 310 311 310 311 311 310 311 310 309 306 305 304 303 302 300 298 298 298 298 298 298 297 297 296 295 293 293 293 293 293 293 293 294 294 293 293 293 293 292 291 291 291 292 292 291 291 291 291 291 291 292 291 292 292 292 292 293 293 293 294 295 296 297 297 299 302 304 305 306 308 309 311 311 313 314
304 303 303 303 303 303 304 304 306 308 309 309 309 310 310 309 309 308 307 305 304 303 303 302 300 298 297 297 297 297 297 297 296 295 294 293 292 292 292 293 293 293 293 293 293 293 293 292 292 291 292 291 292 291 291 291 291 291 291 291 291 291 291 292 292 292 292 292 293 293 294 295 296 296 296 297 299 301 303 305 308 309 309 310 310
302 303 303 303 302 302 303 303 304 306 307 308 309 309 309 308 308 306 305 305 303 302 302 301 300 298 297 297 297 297 297 296 296 295 293 293 292 291 292 292 292 293 293 292 292 292 292 292 291 291 290 291 291 291 291 291 291 290 290 290 291 291 291 291 292 292 291 292 292 293 293 294 295 295 294 294 296 297 298 300 303 306 306 306 307
302 302 302 302 302 302 302 302 302 304 306 307 308 308 308 307 306 305 304 303 302 302 301 300 299 298 297 297 296 297 296 296 295 295 294 292 292 292 291 292 292 292 292 292 292 292 292 291 290 290 291 291 292 291 291 290 290 290 289 290 290 291 291 291 291 291 292 292 291 292 292 293 293 292 292 292 292 293 294 296 298 301 302 303 304
301 302 302 302 301 301 301 301 302 302 304 305 306 306 306 306 304 304 303 301 301 301 300 299 298 297 297 297 296 296 296 295 295 295 294 293 292 292 291 291 292 292 292 291 291 291 291 291 290 290 289 291 290 290 290 290 290 289 289 289 289 290 290 291 291 291 291 291 291 291 291 291 292 292 292 292 291 291 291 292 293 295 297 299 301
300 301 301 302 302 301 301 300 301 301 301 303 304 305 304 303 302 301 300 299 300 300 299 297 297 297 296 297 296 296 296 295 295 295 294 293 292 291 290 291 291 291 291 291 290 290 291 290 290 289 289 289 291 291 290 290 289 288 288 288 289 289 290 290 290 290 290 291 291 290 291 291 291 291 291 291 291 290 290 291 291 292 293 295 298
298 299 300 301 301 300 300 300 300 300 300 301 302 302 300 299 297 296 296 297 298 297 297 296 297 296 296 297 296 296 296 295 295 294 294 293 292 290 290 291 291 291 290 290 290 290 290 289 289 290 289 289 289 289 289 289 288 288 288 288 289 289 289 289 289 290 289 290 290 290 290 290 290 290 290 290 290 290 290 290 290 291 291 292 294
296 297 298 299 300 300 299 298 299 299 299 298 299 299 298 297 297 295 295 296 296 296 296 296 296 296 296 296 297 296 296 295 294 294 294 293 292 291 290 290 291 291 291 291 291 291 290 290 289 290 289 289 288 288 289 290 289 286 287 288 288 290 290 289 289 289 289 289 289 290 289 290 289 289 289 290 290 289 289 289 289 290 290 291 290
295 295 297 298 299 300 299 299 299 298 298 298 299 299 299 298 296 296 297 297 295 295 294 295 295 296 296 296 296 296 296 295 294 294 294 293 292 290 290 289 290 290 291 291 290 290 289 289 289 288 288 289 289 288 288 289 289 289 286 286 286 288 290 288 288 288 289 289 289 290 290 290 289 289 289 289 288 289 288 289 289 289 290 289 289
296 296 297 297 298 298 299 299 298 298 298 298 298 298 299 299 298 297 297 296 296 296 296 296 296 295 295 295 296 296 296 295 294 294 293 293 292 291 290 290 290 290 289 289 289 289 288 288 289 289 287 288 289 288 287 289 291 289 290 288 286 285 287 287 288 287 288 289 289 289 289 289 288 288 288 288 288 288 288 288 288 288 289 289 289
293 293 294 296 297 298 298 298 297 298 298 298 298 299 299 298 297 296 297 296 294 295 295 294 295 294 293 294 295 295 295 295 294 294 293 293 292 291 291 289 289 290 290 289 289 289 288 288 288 289 290 287 288 287 288 286 287 290 289 289 286 287 286 286 287 287 286 287 288 288 288 288 288 288 288 288 287 287 288 288 287 287 288 288 288
293 293 294 295 296 297 298 298 297 297 297 297 298 298 297 295 294 294 294 293 293 294 293 292 293 293 293 293 293 294 294 294 294 293 293 293 293 292 291 290 289 289 290 289 288 289 288 288 289 288 289 290 287 288 287 287 286 286 291 284 285 286 289 288 285 285 285 286 286 287 288 288 288 288 287 287 288 287 287 288 287 287 287 288 288
292 293 293 294 295 296 297 297 297 297 297 297 297 297 296 295 293 292 291 292 291 291 290 291 291 291 292 293 293 293 294 294 294 293 294 293 292 292 291 290 289 289 289 289 289 289 288 288 288 288 289 290 290 287 286 287 286 288 286 287 292 295 289 286 287 286 283 286 286 286 286 286 287 287 287 287 287 287 287 287 287 287 287 287 288
292 292 292 292 293 294 295 296 296 296 296 296 297 296 296 295 294 294 294 293 293 293 294 295 293 293 294 292 292 293 293 293 293 293 293 293 292 292 291 290 290 289 289 289 288 289 288 288 288 288 289 289 289 288 288 286 285 286 286 287 287 285 289 287 287 285 285 285 285 285 285 285 285 286 286 286 286 286 286 286 286 286 286 287 287
290 289 290 291 292 293 294 295 295 295 296 296 296 296 296 295 295 295 295 295 295 295 294 294 294 294 293 292 292 292 293 293 293 293 293 293 292 291 291 290 290 289 289 288 288 289 289 289 288 288 288 288 289 290 288 287 286 286 286 286 285 285 286 287 289 291 290 286 285 284 284 285 284 285 286 286 285 286 286 286 286 286 286 287 287
288 288 289 290 291 291 292 293 294 294 295 295 295 296 296 295 295 295 294 295 296 295 294 294 293 293 292 292 291 291 292 292 293 292 292 292 292 291 291 290 289 289 288 289 288 289 288 288 287 286 286 286 287 289 288 286 288 287 284 283 285 285 285 285 284 288 288 288 285 283 285 284 285 285 285 285 285 285 285 285 285 286 286 286 286
286 286 288 288 289 289 290 291 291 292 293 294 295 295 295 295 294 294 294 295 294 292 293 292 292 292 292 292 291 291 291 291 291 292 292 292 292 291 290 290 290 289 288 288 288 288 288 288 288 287 287 286 286 287 288 288 287 288 288 287 286 284 286 286 286 284 283 287 288 285 285 285 283 285 284 285 285 285 285 285 285 285 285 286 286
286 286 287 287 288 288 288 289 290 291 291 293 293 294 294 294 294 294 294 294 294 292 291 291 291 291 291 291 291 291 291 290 291 291 291 291 291 291 290 290 290 289 288 288 287 287 287 287 287 287 287 286 286 286 287 288 286 286 286 286 287 287 287 285 285 284 287 283 282 283 283 283 285 285 284 283 284 285 284 285 285 285 285 285 285
Wind_Speed
10 7 6 7 11 14 16 16 15 15 15 14 14 13 12 11 10 9 8 8 7 8 8 8 8 7 8 7 8 8 8 8 8 8 8 8 8 7 7 6 6 7 7 7 7 8 9 10 10 11 12 12 15 14 15 16 15 14 14 14 14 14 14 13 13 13 13 13 13 13 13 13 11 11 12 12 12 11 9 9 6 7 7 9 11
13 8 5 7 11 14 15 16 16 15 15 15 14 14 13 12 11 10 10 9 8 8 8 8 8 9 9 8 8 9 8 8 8 8 8 8 7 7 7 7 6 6 7 8 8 10 11 11 12 13 13 15 15 15 15 14 14 13 13 13 13 13 13 13 13 12 13 12 12 11 12 12 11 11 12 12 11 11 10 9 9 7 7 11 12
8 7 5 7 11 12 15 16 16 16 15 15 15 14 14 13 13 12 11 10 10 10 9 9 9 9 9 9 9 9 10 9 9 9 9 9 9 8 7 7 6 6 7 9 10 11 12 13 14 15 15 14 14 14 14 13 13 13 12 12 13 13 12 12 12 11 12 12 11 9 9 10 10 10 11 11 12 11 10 10 9 10 8 12 11
10 7 7 7 11 11 13 15 15 15 15 14 13 13 13 14 13 12 11 11 11 10 10 10 9 9 9 9 9 10 10 10 10 11 10 10 10 10 9 8 8 9 9 10 10 11 12 13 13 14 14 13 13 13 13 13 12 12 11 11 12 12 12 12 11 11 11 11 10 7 5 5 6 8 11 11 11 11 9 9 10 12 13 12 13
9 8 9 8 10 11 12 13 15 14 15 14 14 13 13 13 12 12 11 11 11 11 10 10 10 9 9 10 10 10 11 10 10 11 10 9 9 9 9 9 10 10 9 11 12 12 12 12 13 14 14 13 12 12 12 12 11 11 11 11 11 11 11 11 11 11 10 10 9 6 5 5 4 8 8 9 11 10 8 9 11 12 12 12 13
10 9 9 8 10 11 11 12 14 15 14 14 14 13 13 13 12 12 11 12 12 12 11 11 11 10 10 11 11 11 11 10 10 9 10 9 9 9 9 9 10 11 11 10 10 10 12 13 13 12 13 12 12 12 11 11 10 10 11 11 11 11 11 11 10 10 9 7 7 4 4 5 4 4 6 8 9 10 9 10 11 12 12 12 12
11 10 9 10 9 10 11 12 15 15 15 15 14 13 13 13 13 12 12 12 12 12 12 12 12 12 12 12 11 11 10 10 9 8 9 9 8 9 9 8 9 9 9 9 10 10 12 11 12 11 12 12 12 11 10 11 10 10 11 11 11 11 11 11 10 10 9 5 4 4 4 5 4 2 6 8 9 10 10 10 11 11 12 12 12
9 9 10 9 8 9 12 13 14 15 15 14 14 14 14 14 13 12 12 12 11 11 12 12 13 13 13 12 11 10 10 9 9 9 8 8 8 9 8 7 7 8 8 9 9 9 11 10 11 11 11 12 11 11 11 11 11 11 11 11 11 11 11 11 10 9 9 5 4 4 4 4 5 3 5 8 9 10 10 9 10 11 11 12 9
10 10 9 8 9 11 13 13 14 15 15 15 15 14 13 14 13 13 13 13 13 12 12 13 13 13 12 11 10 10 9 8 8 8 8 7 7 6 6 5 6 7 7 7 7 9 10 10 10 11 11 11 11 11 11 11 11 11 12 12 11 11 11 11 10 8 6 4 5 4 5 5 4 4 4 8 9 10 11 8 9 10 11 9 7
10 8 5 5 6 10 12 12 16 16 16 16 15 14 14 14 14 14 14 13 13 14 14 13 12 12 11 10 10 9 8 8 7 6 7 6 6 5 6 5 5 6 6 6 6 9 10 10 10 11 11 11 12 11 12 11 12 12 12 12 12 12 11 10 9 8 4 4 4 4 5 7 4 3 8 8 10 11 11 9 9 9 9 10 10
10 7 4 5 6 9 11 13 14 14 15 15 15 14 14 14 14 14 14 14 14 13 13 11 10 10 10 10 9 8 8 7 7 7 7 7 7 7 6 6 6 6 6 6 7 9 10 10 11 11 12 12 12 12 12 12 12 12 12 12 12 12 11 9 7 4 4 4 4 4 5 7 4 4 9 11 12 13 11 9 8 9 12 14 15
11 6 5 5 5 8 10 11 11 13 13 13 15 15 15 15 14 15 15 14 13 13 10 11 10 10 9 9 8 9 8 8 6 7 8 8 8 8 8 7 7 7 7 8 8 9 10 10 11 11 12 12 12 12 12 12 12 12 12 12 12 12 11 10 5 4 4 5 6 5 5 6 6 7 10 12 13 14 12 12 13 13 12 12 13
10 7 5 5 6 7 9 10 8 11 11 12 15 15 14 14 14 14 13 13 13 14 14 12 11 12 12 11 11 10 9 8 7 7 8 7 8 8 9 9 8 8 9 9 9 10 10 10 11 11 12 12 12 12 12 12 12 12 12 12 12 11 10 10 5 5 5 5 5 5 5 5 5 9 6 6 7 6 7 9 9 8 10 12 13
9 8 5 5 5 6 9 9 7 9 9 9 13 13 13 13 14 14 13 12 12 12 10 10 8 10 11 10 11 10 8 9 10 10 9 9 9 8 9 9 9 9 9 9 10 10 10 11 11 11 11 11 12 12 12 12 12 12 13 12 12 11 9 7 6 5 5 6 5 6 6 5 6 9 7 6 8 6 6 7 9 10 10 12 11
9 8 5 4 4 5 8 8 7 8 9 9 10 11 13 12 11 11 14 12 11 11 11 12 12 11 11 11 10 9 10 10 11 11 10 10 10 10 10 10 10 10 10 10 11 11 11 11 11 12 12 12 12 12 12 12 12 13 13 12 12 11 9 4 4 4 5 5 5 6 6 5 8 9 6 7 7 7 7 8 11 11 11 10 10
7 7 4 4 4 4 6 6 8 8 9 10 10 11 11 12 12 12 13 14 14 14 12 13 13 13 13 12 11 12 12 12 11 12 11 11 11 11 11 11 11 11 12 12 12 12 12 12 12 12 12 12 12 12 12 12 12 12 12 12 12 11 10 5 4 4 4 4 4 5 5 5 10 8 8 7 6 7 9 10 10 9 9 10 10
6 5 6 6 5 5 5 5 5 9 9 9 10 11 11 12 11 12 13 13 13 13 13 13 13 14 13 13 13 12 13 12 13 12 12 12 12 12 12 12 12 12 13 13 13 13 13 13 13 12 12 12 12 12 12 12 12 12 12 12 11 11 10 6 4 4 4 5 4 4 4 6 8 8 7 5 6 9 9 10 9 9 9 10 10
6 6 7 7 6 6 5 5 5 7 7 7 9 11 10 11 11 12 12 12 12 11 11 12 13 12 11 11 10 11 12 13 13 13 13 13 12 12 12 13 13 13 13 13 13 13 13 13 13 12 12 12 12 12 12 12 12 12 11 11 11 11 10 7 5 4 4 4 4 4 4 8 8 8 7 7 9 9 9 9 9 9 9 10 10
5 6 6 7 7 6 6 5 6 6 7 6 6 8 9 10 10 10 10 10 10 10 11 11 11 10 10 10 10 10 10 11 12 12 13 12 10 11 12 13 14 14 13 13 13 13 13 13 13 12 12 12 12 12 12 12 12 12 12 11 11 10 9 5 5 4 4 4 4 4 5 9 8 7 7 8 9 9 9 9 10 10 10 10 10
5 7 7 7 6 7 7 6 6 6 6 6 6 6 7 10 10 10 10 10 10 10 10 10 10 9 10 9 10 9 9 9 11 10 11 12 11 9 11 13 14 14 14 14 14 13 13 13 13 13 13 12 12 12 12 12 12 12 11 11 10 7 5 4 4 4 3 4 4 3 8 9 8 7 7 8 8 8 8 9 8 9 9 9 9
6 8 8 8 8 8 8 7 7 7 7 6 6 7 6 9 8 9 9 9 9 10 9 10 10 8 9 9 10 7 6 6 7 6 10 9 9 9 11 13 14 14 14 14 14 14 14 13 13 13 13 13 13 13 13 12 12 12 11 10 8 5 4 4 4 3 4 3 4 5 9 8 8 8 8 8 8 8 8 8 8 8 8 8 8
9 8 9 10 9 9 10 10 7 8 7 6 5 5 6 7 7 6 7 7 8 8 8 7 7 6 9 8 6 5 4 4 5 5 5 7 8 9 11 13 14 13 13 14 14 14 14 13 13 13 13 12 11 5 6 10 12 11 10 8 5 4 4 4 4 3 4 3 4 6 9 8 7 7 8 8 8 8 7 7 7 7 8 8 8
10 10 10 12 10 9 9 11 11 8 8 7 5 5 6 6 6 6 6 7 7 8 6 7 6 7 7 6 5 4 4 4 4 5 5 6 7 9 10 11 13 12 13 13 13 13 14 14 14 13 13 12 6 4 4 3 5 8 6 4 4 4 4 4 3 3 3 3 3 9 8 8 8 7 7 7 8 7 7 7 8 8 8 8 8
13 11 10 9 10 10 12 11 11 10 8 6 5 5 5 5 5 5 5 6 6 6 6 7 6 7 7 5 5 5 5 4 5 7 7 5 5 8 10 11 11 10 12 10 12 12 14 13 13 12 8 4 4 4 4 4 4 3 4 4 4 4 4 4 3 3 3 3 3 9 9 8 8 7 7 7 7 7 7 8 8 8 7 8 8
9 8 7 12 13 12 10 10 11 10 11 7 8 7 6 5 5 5 5 5 5 5 5 6 6 7 7 5 5 6 5 4 4 4 3 4 4 4 4 4 3 5 5 4 4 4 5 5 5 4 3 4 4 4 4 4 3 3 4 3 4 3 3 3 3 3 3 3 4 9 9 8 8 7 7 7 7 7 7 8 8 7 8 8 8
6 8 12 11 14 12 12 10 10 11 11 9 7 7 7 8 7 6 5 4 5 5 5 5 6 7 6 6 6 6 5 4 4 4 4 4 4 4 4 4 4 4 3 4 3 3 4 3 4 4 3 3 4 4 3 4 4 4 4 3 3 3 3 3 3 3 3 2 4 8 8 8 7 7 7 7 7 8 8 8 8 8 9 9 8
10 12 11 9 10 12 13 12 12 11 13 10 7 8 8 9 7 6 7 6 5 6 6 6 6 7 7 7 7 6 5 5 5 5 5 4 4 4 4 4 5 4 3 4 4 3 3 3 3 4 3 4 5 4 4 4 4 5 4 3 3 3 3 2 2 2 2 2 3 7 7 7 7 7 7 7 7 8 8 7 8 9 9 9 8
8 9 10 11 12 15 15 14 13 12 10 10 10 8 8 8 9 7 8 7 7 7 6 6 6 6 7 6 6 6 7 6 6 5 5 4 5 4 3 4 4 4 3 3 5 4 3 3 4 4 4 4 5 4 4 4 4 3 5 3 3 3 2 2 2 2 2 1 2 5 7 7 7 8 8 8 8 8 8 7 7 8 8 8 8
12 11 8 9 12 12 14 14 13 15 11 10 11 8 8 8 8 8 9 8 7 7 7 6 7 6 6 7 7 7 6 7 7 6 5 5 4 4 4 4 4 4 4 4 4 5 4 4 4 4 4 4 4 4 4 4 3 3 3 4 3 3 2 2 2 2 2 1 1 3 6 7 7 8 8 9 9 9 8 8 8 7 7 7 7
16 9 10 11 8 11 14 16 16 14 12 12 9 10 12 11 10 10 9 9 8 7 8 7 6 7 7 7 8 7 8 8 7 6 6 6 5 5 4 4 4 4 4 5 4 3 5 4 4 4 4 4 4 3 3 4 3 3 2 3 3 2 2 2 2 2 1 1 2 2 6 7 8 8 9 10 10 10 10 9 8 8 8 6 8
13 12 11 10 10 11 13 13 15 15 12 13 10 10 9 11 10 9 8 8 8 7 7 7 7 7 7 8 8 8 8 7 7 7 6 6 5 5 5 4 4 4 4 4 3 4 3 4 4 4 4 4 4 3 3 4 3 3 2 2 3 2 2 2 2 2 2 2 2 2 3 7 8 8 9 10 11 11 11 11 11 9 8 8 8
13 17 12 10 11 14 13 13 14 15 14 13 13 11 12 11 11 9 10 9 9 8 7 7 8 7 8 8 8 8 8 7 8 8 7 7 6 6 5 6 5 4 4 4 5 4 4 4 3 2 3 3 4 3 2 3 3 3 3 3 2 2 2 2 2 2 2 2 2 2 3 3 8 9 10 11 11 12 12 12 12 11 11 10 10
12 16 12 11 14 12 12 13 13 15 15 15 13 12 10 11 11 11 10 12 8 8 8 9 8 8 8 9 8 9 8 9 8 9 8 7 7 7 6 6 5 4 4 5 6 5 4 4 4 3 3 3 3 3 2 2 3 3 2 2 2 3 2 2 3 3 3 2 2 2 2 3 4 8 12 12 12 12 13 13 12 12 12 11 11
11 8 9 13 12 9 11 9 12 14 18 13 12 11 12 11 10 9 9 9 8 9 9 9 8 8 8 9 9 9 9 7 8 8 7 7 7 7 7 6 5 6 5 5 5 4 4 4 4 4 3 3 4 4 4 3 2 2 2 2 2 2 2 3 3 3 2 3 2 2 2 3 3 4 5 11 13 13 13 12 12 12 12 12 12
8 8 14 17 12 11 10 8 12 13 14 13 14 14 12 10 9 8 8 9 9 9 8 8 8 8 8 9 10 9 9 8 8 8 8 7 7 7 7 6 6 6 5 4 5 4 4 5 5 5 3 2 2 3 2 3 3 3 3 2 3 2 2 3 3 3 3 3 2 3 3 3 4 4 4 5 9 14 13 13 13 12 12 12 12
13 13 12 9 12 12 12 13 12 14 13 16 13 11 10 9 8 9 8 9 9 9 9 9 9 8 9 8 10 9 9 9 9 9 8 8 8 8 7 6 7 6 5 5 5 6 5 4 4 4 6 4 4 3 2 3 3 4 3 3 3 3 3 3 3 3 2 2 3 3 3 4 4 4 4 5 5 9 14 13 13 13 13 12 12
12 11 12 11 12 13 14 14 15 16 15 13 11 11 9 10 10 9 9 9 9 9 8 8 8 8 8 8 9 9 10 10 10 9 8 9 8 7 7 8 7 7 6 5 5 4 5 5 4 4 2 4 4 5 3 3 4 4 3 4 3 3 3 3 3 3 2 4 4 3 4 4 4 4 5 5 4 5 10 13 13 14 14 13 13
13 13 13 14 15 13 14 16 15 12 11 11 12 10 8 7 7 7 8 9 9 7 7 7 8 8 8 9 10 10 10 10 10 10 8 8 8 7 7 8 7 7 6 6 5 5 4 5 6 3 3 3 4 5 5 4 4 4 4 4 3 3 3 3 4 3 3 4 3 4 4 3 4 4 4 4 4 5 4 8 11 12 14 13 13
11 13 13 14 11 11 12 15 14 12 11 10 9 7 6 6 5 6 7 8 7 6 7 8 8 8 9 10 10 10 9 10 10 10 9 9 8 7 8 9 7 7 7 6 6 6 5 5 5 4 2 2 2 3 5 5 5 4 4 4 4 4 4 4 3 4 3 3 4 3 2 3 4 4 4 4 4 4 5 4 4 5 7 14 13
10 9 12 11 12 11 11 11 11 10 8 7 7 7 7 8 8 6 7 9 7 8 8 8 7 9 9 10 10 10 10 10 10 10 9 8 8 8 8 8 8 8 8 8 8 8 10 9 7 6 6 3 2 3 5 7 6 6 5 4 3 3 4 3 4 4 3 3 3 2 3 3 3 4 4 3 4 4 4 4 4 4 4 8 13
8 8 10 12 13 14 11 14 11 10 9 9 9 10 11 8 7 10 12 9 9 8 8 8 8 8 9 10 10 9 10 10 10 10 9 9 8 7 8 8 8 9 9 10 9 8 7 7 6 4 6 6 3 3 4 4 8 5 4 4 3 2 2 2 3 3 3 3 2 3 2 3 3 3 3 3 4 4 4 5 4 4 5 4 6
9 10 12 14 13 12 13 12 8 9 10 11 10 10 10 10 10 10 8 7 9 11 11 9 9 8 9 9 9 9 10 11 10 10 9 10 10 9 9 10 9 8 7 6 7 7 8 7 7 5 2 4 4 6 5 5 1 4 5 4 2 1 0 1 1 2 1 2 2 3 3 3 4 3 2 4 5 5 5 4 4 4 4 4 5
6 7 9 7 9 11 11 10 9 11 11 12 10 10 8 9 9 6 9 6 5 5 4 6 5 7 8 8 8 9 10 10 10 10 10 10 10 10 10 9 9 9 9 9 9 10 8 10 10 8 6 0 1 2 6 3 4 2 2 5 3 3 2 2 1 1 1 1 1 3 2 3 3 3 3 4 4 4 4 4 5 5 4 4 4
7 6 7 10 8 9 10 11 11 12 11 13 13 11 10 8 7 5 7 7 5 6 7 6 8 7 9 8 8 9 10 10 10 10 8 9 11 11 10 10 10 10 10 10 10 10 9 8 8 7 7 6 4 5 3 4 2 7 4 1 2 1 2 6 6 2 1 1 1 2 2 2 3 3 3 4 4 3 3 4 5 4 4 4 3
6 8 7 8 7 11 11 12 11 12 11 12 13 10 9 8 6 6 6 5 4 7 7 7 9 9 7 9 10 8 9 8 9 11 11 11 10 10 10 10 10 10 9 9 10 11 11 10 10 8 11 9 8 3 4 3 6 3 2 5 2 1 3 2 3 2 1 2 1 1 2 1 2 2 3 3 2 3 3 4 4 4 3 3 3
7 6 4 6 7 6 6 8 8 8 9 11 13 10 10 10 11 10 10 9 8 9 14 15 10 12 12 6 7 10 9 9 9 10 10 9 10 10 10 10 10 10 9 9 8 8 10 10 11 9 11 6 8 6 5 3 1 1 3 3 1 2 4 2 2 3 1 1 1 1 1 1 1 1 1 2 2 2 3 3 3 3 3 2 2
5 4 5 6 7 6 6 7 8 7 8 9 12 10 10 9 13 13 13 12 12 11 7 5 9 7 6 10 9 9 11 11 10 10 10 10 9 10 10 10 9 9 8 8 9 11 10 10 8 8 9 5 6 9 10 7 2 2 1 0 1 1 1 6 4 3 2 2 3 3 3 1 1 2 1 0 1 1 1 2 2 2 2 1 2
8 7 6 5 7 7 7 8 5 5 5 7 10 11 10 10 12 13 11 11 12 10 8 7 6 7 8 8 9 9 10 10 9 10 9 9 9 9 9 9 9 9 9 9 9 9 7 6 8 7 5 5 7 8 10 7 10 5 3 2 2 2 4 5 3 5 3 4 3 1 2 2 2 3 2 1 1 1 1 1 2 2 1 1 2
9 8 8 6 5 4 4 5 7 6 5 7 8 9 9 9 9 9 11 9 8 4 4 5 6 7 8 6 8 8 8 9 9 9 10 10 9 9 9 9 9 9 9 8 8 8 11 11 10 9 9 7 7 5 6 8 8 7 7 1 2 3 3 3 2 3 3 4 2 3 3 1 2 3 2 0 0 0 1 1 2 1 0 1 2
8 8 6 6 4 2 3 4 5 6 7 8 8 10 10 8 10 11 13 10 6 4 5 8 8 7 8 8 7 7 8 8 9 9 9 10 10 10 10 11 10 10 9 10 9 10 9 10 10 10 9 9 6 6 7 6 7 5 7 7 5 3 2 2 1 3 3 1 3 5 4 6 5 3 1 1 0 1 1 1 1 0 0 1 2
8 8 7 7 5 1 2 3 5 5 7 9 9 11 10 10 10 10 11 10 7 7 7 8 7 8 8 8 7 6 6 7 7 7 9 10 10 10 10 10 9 10 10 10 11 11 10 10 9 10 10 11 8 7 6 5 5 5 7 8 10 10 11 8 8 5 5 4 2 3 2 4 2 2 1 1 0 1 3 2 1 1 1 1 2
Wind_Direction
231 207 197 193 182 185 183 181 178 175 174 176 177 175 173 170 165 160 159 160 161 162 161 159 157 153 146 142 136 130 123 118 115 110 108 107 100 98 97 99 101 105 104 100 97 103 102 93 89 86 82 76 75 74 67 62 60 55 51 50 50 48 46 44 42 41 39 38 39 37 39 50 64 80 81 74 69 65 63 62 49 59 54 56 54
179 194 193 189 189 186 184 182 182 179 178 178 178 174 174 170 164 167 163 163 168 169 169 168 166 161 157 151 143 135 127 121 116 112 107 103 101 100 93 88 92 96 93 94 94 85 82 83 83 85 83 78 73 70 69 66 63 59 53 51 51 51 49 47 45 43 42 40 37 37 34 34 54 72 79 75 70 66 60 55 48 52 55 54 54
148 175 188 191 189 194 185 184 184 182 184 181 181 175 175 170 168 170 168 166 167 177 174 173 173 167 161 155 149 140 132 128 120 115 108 98 91 83 88 89 83 89 94 93 88 89 88 88 87 81 78 77 76 74 72 72 69 64 59 54 52 51 50 49 47 44 44 42 38 35 34 30 22 73 79 77 75 68 62 60 57 54 56 53 53
153 177 183 188 196 194 183 186 185 186 185 183 183 180 180 174 171 172 171 168 171 176 175 175 176 169 162 155 147 139 133 128 123 117 108 101 94 89 87 88 93 94 94 98 100 99 95 92 91 89 86 84 84 83 80 75 72 68 63 60 56 53 51 48 46 45 47 45 39 32 36 27 20 41 77 78 75 72 69 66 63 62 62 59 56
159 170 178 180 187 193 187 182 184 187 187 186 185 185 183 178 177 175 173 173 174 176 174 177 174 168 157 147 144 136 131 130 128 123 117 109 103 95 94 97 99 103 108 110 105 101 102 99 91 89 89 85 83 82 80 78 76 74 69 64 60 59 55 50 46 43 42 46 43 42 33 31 24 4 71 70 76 75 74 69 66 64 62 61 58
163 168 174 178 185 188 185 180 181 185 187 187 187 187 184 181 180 180 179 178 176 175 174 172 170 161 156 150 143 138 134 133 134 132 115 114 110 106 98 107 106 109 111 113 110 105 98 92 90 91 90 87 85 84 83 83 80 77 74 68 64 63 61 53 49 44 42 45 46 44 39 27 20 358 57 82 78 73 68 64 64 62 60 58 60
167 168 172 178 181 179 179 180 182 184 185 186 185 186 186 181 180 182 183 182 179 175 173 170 165 163 154 147 143 142 138 140 137 135 134 120 124 112 113 115 115 117 113 110 104 95 86 87 90 90 89 88 85 84 83 80 77 73 71 69 66 64 62 58 52 46 38 42 42 37 37 21 16 357 29 80 77 69 63 62 64 64 61 54 48
175 173 175 176 176 178 177 177 182 183 184 183 181 183 184 179 179 181 181 181 178 178 172 166 163 159 156 152 147 144 146 141 145 139 139 137 132 122 126 127 124 118 120 113 116 104 98 93 91 88 85 82 80 78 77 75 72 70 67 66 65 63 61 60 56 50 40 47 39 34 24 17 10 2 4 65 71 70 64 62 65 68 66 61 50
179 180 177 177 179 177 174 173 171 177 179 177 177 179 179 175 177 178 180 175 175 171 169 165 162 159 155 150 149 152 147 156 155 148 144 155 131 135 133 130 127 121 119 123 124 111 104 100 95 92 87 83 79 77 75 72 69 67 66 66 65 63 62 61 60 50 49 45 34 31 21 14 2 2 7 64 75 69 55 49 66 62 61 64 64
180 181 187 178 180 179 175 175 170 173 173 174 174 171 178 174 177 180 179 174 171 171 171 169 166 163 161 167 160 158 158 158 167 153 150 143 131 159 161 143 138 129 128 130 137 105 102 99 97 94 91 86 81 78 74 71 68 65 65 63 63 62 60 58 57 55 54 49 44 30 24 1 3 348 46 64 68 63 60 48 44 40 45 44 51
178 183 182 188 190 179 182 181 171 174 172 174 171 170 176 178 174 177 176 168 172 171 169 169 170 174 176 177 176 174 170 170 184 172 170 184 177 168 173 164 134 148 145 149 115 100 98 95 92 90 87 84 83 79 75 71 69 67 66 65 63 60 58 52 51 55 48 47 43 33 12 355 6 6 66 77 81 79 79 75 74 72 69 66 64
180 179 183 189 192 189 187 182 178 174 176 170 175 177 176 176 177 179 175 171 174 176 176 183 180 188 194 190 197 187 157 205 192 188 186 175 173 169 165 156 151 149 133 106 102 101 98 96 94 91 87 85 82 79 76 73 71 70 69 66 63 61 56 49 48 47 43 40 45 23 19 17 13 51 74 78 79 79 76 75 73 67 66 62 58
181 181 182 184 192 195 188 188 183 182 185 177 181 182 187 179 184 186 185 188 184 182 189 194 198 193 208 199 192 189 208 182 180 174 174 171 168 166 161 161 158 145 116 111 106 104 103 100 97 94 91 88 85 83 79 76 74 72 70 67 62 57 56 51 47 42 38 26 36 21 12 15 16 33 65 66 67 69 62 62 63 61 56 57 51
177 184 186 184 191 201 192 189 190 192 193 190 192 191 194 195 194 209 200 199 207 208 207 205 211 215 206 209 201 190 171 180 178 177 176 175 174 167 167 165 166 131 127 122 116 111 111 109 105 101 97 93 89 87 84 81 77 74 70 66 63 58 51 52 46 46 42 31 25 15 12 5 38 41 52 65 55 65 75 71 70 63 61 57 57
183 187 185 193 196 206 203 195 195 201 199 198 199 199 201 204 204 208 207 207 205 207 204 200 206 206 205 202 194 182 180 175 180 177 175 172 169 167 165 162 149 137 132 130 127 121 117 115 110 105 101 99 95 91 87 84 80 76 73 69 65 61 53 57 43 41 41 33 23 13 9 4 24 51 64 62 63 62 67 68 59 52 53 56 52
181 183 184 208 212 217 209 209 206 206 206 206 204 202 204 205 205 208 205 206 203 204 202 198 199 199 197 192 186 181 183 177 179 177 175 171 170 167 162 155 149 144 138 134 131 128 124 119 115 111 108 105 101 97 93 89 84 79 76 72 68 64 57 53 58 42 42 34 19 14 5 3 13 46 58 58 61 60 55 51 56 56 51 51 51
171 172 181 201 214 218 213 215 218 207 210 214 206 202 204 206 203 200 203 202 199 202 195 195 194 196 191 187 183 179 181 181 179 178 176 174 171 166 163 157 153 148 143 140 136 133 128 123 120 117 115 111 108 104 100 94 89 85 80 75 71 66 61 53 62 48 44 35 17 10 8 18 24 44 52 53 54 53 55 54 52 51 50 48 47
179 179 192 190 202 208 211 214 218 211 207 220 210 199 200 204 200 202 199 197 195 196 192 188 192 189 183 181 175 174 180 181 179 177 175 172 168 164 161 158 155 151 146 142 137 132 128 126 124 121 118 114 110 107 102 98 93 88 81 74 70 65 61 55 59 51 42 34 27 6 21 17 28 46 50 46 49 49 49 51 53 53 52 53 53
187 198 206 198 202 198 205 207 214 210 204 212 206 196 197 200 197 202 199 190 190 190 185 182 180 183 174 172 167 170 178 179 176 176 173 168 161 160 163 159 155 151 144 140 137 134 132 130 126 123 118 114 109 104 99 94 91 86 80 74 68 66 59 54 53 46 35 39 24 14 26 18 33 44 45 46 49 48 49 49 50 51 51 53 52
211 207 213 216 202 202 200 203 205 204 199 201 206 192 201 198 198 200 190 185 185 187 175 170 172 173 168 163 160 166 174 172 174 172 170 164 159 164 164 158 154 148 146 143 141 138 135 131 126 121 117 111 104 99 95 91 86 80 76 71 66 61 55 54 49 47 37 34 14 13 23 25 33 43 46 49 50 49 49 50 53 54 54 54 54
224 220 216 212 209 207 203 200 202 201 197 192 198 195 200 194 196 192 185 181 180 176 172 160 162 166 162 157 152 155 156 162 164 162 158 158 157 165 159 159 153 150 148 147 144 142 138 134 128 121 113 105 98 94 91 89 82 76 73 68 60 56 53 51 43 50 43 31 13 23 24 32 35 45 49 53 53 53 53 53 55 58 58 58 57
211 218 221 214 210 210 206 204 197 203 188 189 195 191 192 189 184 187 181 176 175 167 161 153 158 148 149 148 140 142 145 146 145 149 140 155 162 163 159 160 154 151 149 147 145 141 138 134 128 120 111 101 90 80 78 78 76 77 75 73 63 61 51 49 46 47 37 37 10 23 25 34 36 47 55 57 58 58 60 62 62 63 63 62 56
217 217 217 211 209 205 205 203 204 185 188 186 187 190 194 179 172 178 174 172 166 158 144 149 137 143 142 140 144 140 145 142 143 146 146 159 161 161 161 156 153 149 149 146 144 139 134 128 121 114 109 106 102 98 93 92 87 80 81 71 74 66 66 57 60 51 40 26 6 24 26 35 36 44 59 61 64 66 65 69 69 62 65 60 61
216 209 207 203 206 208 206 204 200 193 180 183 176 188 191 171 158 171 171 164 156 147 142 143 147 148 147 147 145 143 143 140 141 143 146 155 157 157 152 145 141 144 144 142 138 133 127 118 111 107 101 98 104 102 103 99 93 88 77 74 71 67 58 54 54 50 47 15 16 25 26 36 38 42 57 66 71 71 67 71 69 70 66 68 61
210 206 209 210 206 207 202 203 199 197 195 186 189 192 178 162 163 176 177 167 152 150 151 149 155 154 151 151 144 143 142 145 145 146 151 145 134 122 117 110 101 91 92 81 85 74 79 100 101 94 97 103 100 96 103 98 93 86 77 71 76 69 66 58 54 51 37 22 17 24 25 35 41 39 49 66 73 74 71 77 76 75 69 65 63
182 201 210 208 207 204 204 198 197 198 197 192 189 186 172 188 183 178 173 167 161 157 157 163 160 160 158 151 146 145 152 148 151 153 151 152 138 131 123 119 119 114 101 112 104 109 115 115 113 108 99 94 90 94 83 93 98 84 78 69 69 68 64 58 55 53 42 27 18 22 29 35 47 45 47 65 70 73 74 78 84 75 69 65 66
197 214 207 206 203 203 203 198 200 197 199 195 186 185 192 193 187 177 179 180 168 164 173 171 168 160 160 158 157 160 157 158 157 161 160 163 148 144 140 139 138 132 134 131 127 130 128 121 113 105 106 101 95 92 91 87 91 99 91 82 72 72 69 62 56 57 47 40 16 16 35 44 49 50 58 69 71 78 74 84 85 81 73 67 65
214 218 207 204 198 201 199 198 201 195 194 192 191 193 191 188 191 178 194 167 170 179 174 177 158 170 168 167 162 162 161 163 166 166 165 164 157 147 140 144 142 140 141 141 137 137 127 116 115 113 111 106 108 101 101 99 96 98 106 101 97 91 82 76 69 57 57 58 43 22 40 52 59 54 65 72 75 79 81 71 77 79 76 66 67
230 213 201 204 204 195 192 199 197 197 193 189 194 190 188 190 187 188 195 175 184 181 175 163 175 170 171 170 168 165 169 169 169 172 158 168 153 156 158 154 150 147 151 150 150 140 132 136 132 127 124 123 120 115 112 108 110 108 112 115 112 104 101 100 88 72 74 75 49 34 40 54 66 66 72 75 78 75 78 77 81 83 77 67 74
223 207 200 210 184 184 193 198 196 193 190 188 195 191 192 190 191 194 193 182 187 176 165 180 176 171 176 181 178 173 173 171 167 163 169 164 161 156 160 161 160 156 159 153 157 144 140 139 132 129 132 131 124 123 126 115 106 107 103 109 104 103 102 101 100 93 91 74 55 58 36 54 66 71 78 81 80 78 75 77 84 83 75 75 79
215 215 207 203 190 183 198 193 195 194 190 194 194 195 186 194 191 189 185 187 176 170 179 178 177 184 179 174 178 180 172 171 166 164 172 164 164 164 167 157 159 165 163 143 139 141 136 138 145 144 145 138 127 128 125 116 113 111 115 115 115 118 109 104 105 105 87 71 68 53 36 45 57 61 75 82 84 79 76 75 75 78 74 70 74
205 220 210 192 183 197 191 190 192 191 193 196 194 195 195 196 192 190 194 186 170 180 178 179 183 184 177 180 182 180 175 171 167 167 171 167 168 168 161 167 165 157 159 145 138 136 131 120 111 104 111 122 124 127 123 124 126 127 135 128 131 123 119 117 110 98 86 79 75 62 59 44 49 53 56 71 78 77 76 72 70 66 62 63 61
218 222 206 188 200 191 189 191 186 193 196 195 194 197 191 193 193 196 191 188 179 177 183 184 183 181 179 182 183 179 181 174 174 169 169 171 165 162 165 171 161 157 148 143 132 129 125 126 116 119 118 120 127 129 130 130 126 129 133 122 127 114 114 115 106 99 92 85 74 71 65 56 58 50 48 52 66 71 70 67 64 62 60 59 59
218 207 191 207 199 196 196 185 191 194 200 195 193 194 195 194 194 191 188 179 182 183 188 184 179 179 180 180 182 185 180 178 167 167 167 167 170 173 164 163 161 156 147 148 145 145 135 135 135 141 149 159 155 148 150 138 117 116 110 114 99 100 111 103 93 87 91 85 78 73 73 69 65 64 54 50 53 64 64 64 64 63 62 60 59
216 197 203 214 189 198 190 193 194 197 196 197 197 199 195 191 187 184 183 182 182 189 186 181 181 182 178 183 184 183 180 172 172 165 169 170 170 170 171 164 154 156 152 155 143 138 137 146 151 154 154 165 156 151 163 135 134 122 112 119 108 109 101 99 93 85 80 85 83 78 73 75 75 74 65 68 55 53 57 59 59 59 59 59 58
215 214 214 199 200 198 194 202 191 198 197 200 198 197 192 188 187 189 183 182 185 191 187 185 183 178 183 181 182 180 174 174 172 171 167 175 175 173 169 153 158 153 150 144 144 150 152 147 165 164 156 172 162 145 164 130 126 112 108 103 108 112 108 103 98 94 81 93 86 81 78 77 70 72 65 66 64 56 50 53 53 49 52 53 52
219 215 211 202 207 198 198 200 195 198 199 197 195 198 191 191 189 187 186 183 191 191 186 180 181 183 182 180 177 179 178 177 177 174 169 172 178 172 162 159 156 155 150 148 153 152 154 156 169 198 239 165 169 145 139 130 113 102 99 96 93 109 100 101 103 104 106 88 88 84 81 73 75 74 73 73 65 60 49 49 49 44 42 47 48
216 212 208 202 206 198 200 203 206 200 198 196 197 194 191 184 185 187 190 195 199 194 183 178 187 184 179 184 175 182 181 178 174 174 175 176 175 167 156 159 156 150 146 153 157 150 156 167 168 194 196 190 169 158 143 127 113 104 93 88 95 92 96 98 102 101 104 98 89 84 82 87 82 78 77 75 70 62 58 51 50 46 40 43 47
219 212 207 210 206 201 200 204 202 193 195 194 191 188 183 184 174 181 194 201 203 199 185 190 189 182 188 180 177 184 178 176 175 174 175 172 169 167 163 159 155 151 148 156 157 164 165 175 179 164 179 238 178 155 144 131 110 94 86 81 87 88 98 98 104 102 95 96 101 101 98 84 88 81 83 78 73 68 61 56 53 49 42 41 45
222 211 213 210 209 206 205 205 200 190 181 173 171 178 176 183 179 168 201 207 193 194 197 199 183 191 187 185 182 184 175 177 177 175 173 169 169 167 160 158 159 155 159 164 174 178 176 172 184 169 157 133 91 136 145 124 93 84 83 79 68 87 89 93 93 96 105 109 114 122 100 97 87 86 79 79 77 72 68 65 62 59 51 43 45
231 213 211 211 208 206 193 206 195 185 177 175 179 179 181 176 188 200 205 180 191 188 195 198 195 195 185 188 184 184 176 175 179 174 176 170 167 156 157 167 164 167 172 183 173 169 169 170 152 170 163 153 157 173 180 144 126 89 75 78 83 43 83 65 74 83 97 116 127 124 119 110 98 92 84 78 76 68 66 62 64 62 54 50 45
231 213 214 212 208 203 204 204 178 186 190 187 183 187 190 192 187 195 183 177 183 190 196 191 199 196 193 192 188 183 177 180 177 177 172 168 164 167 170 171 170 175 173 152 157 165 162 163 162 159 254 188 162 180 183 158 130 156 151 142 91 115 120 333 13 44 75 111 131 127 128 112 100 100 99 83 71 66 62 61 58 57 54 50 45
271 233 236 223 209 206 208 190 187 189 194 190 184 194 186 191 193 181 186 180 198 200 200 196 191 197 194 193 190 189 184 181 176 177 174 174 170 168 176 169 174 163 163 170 169 175 176 174 181 175 158 155 106 164 201 254 131 104 95 123 161 162 188 242 220 275 348 149 118 116 119 112 106 95 100 87 76 70 66 61 57 53 51 47 46
271 267 243 226 219 214 204 194 194 194 191 193 195 193 184 175 171 138 165 173 176 162 187 178 188 179 198 190 197 189 185 185 176 174 176 178 175 177 170 173 176 177 172 166 174 178 173 179 187 201 169 147 192 187 220 203 200 150 166 263 118 224 187 213 194 143 351 279 143 113 118 123 126 114 108 83 82 80 74 66 54 51 48 50 47
265 256 249 239 224 218 206 198 194 194 194 189 188 168 146 135 131 92 111 112 101 162 175 205 189 189 189 195 196 184 186 181 177 183 183 181 179 177 174 175 174 176 174 175 178 184 181 183 182 177 192 174 166 180 189 179 230 311 134 131 109 229 237 74 124 182 148 183 211 29 50 44 104 90 87 92 98 87 85 75 57 51 47 52 49
266 264 261 253 259 258 222 206 198 192 194 189 182 169 176 166 157 158 169 178 187 181 197 196 170 188 196 155 174 190 182 188 186 185 187 180 181 179 174 172 177 177 183 181 174 167 184 186 192 190 192 226 163 149 168 194 263 204 263 339 324 189 158 169 177 193 136 272 281 244 297 319 350 55 68 77 67 73 70 78 57 45 46 48 55
284 280 266 244 229 221 217 213 203 194 191 186 179 179 184 186 190 191 189 188 194 211 202 167 187 188 169 183 183 173 187 186 187 188 189 186 179 179 178 180 178 177 175 172 178 187 183 190 176 195 203 164 152 172 180 172 136 219 188 191 105 4 116 138 195 87 200 162 221 222 211 190 241 281 253 32 65 38 64 55 48 40 53 54 64
324 322 296 275 236 222 190 194 200 195 186 182 185 190 191 192 198 204 204 206 209 205 180 190 171 175 185 181 178 184 184 189 184 187 190 188 185 181 179 174 176 180 176 186 184 180 177 182 190 199 183 193 197 188 171 169 178 168 151 144 82 81 53 46 64 165 141 170 196 167 247 224 249 238 267 276 286 310 345 30 13 21 57 81 68
341 336 320 304 279 253 220 184 171 160 166 180 189 200 205 201 204 206 212 221 218 195 142 152 172 167 185 176 185 182 183 190 188 182 187 186 186 183 178 178 178 178 183 186 185 177 183 176 179 187 198 197 204 214 162 185 203 166 148 111 93 63 53 51 86 54 153 180 182 183 195 126 237 224 231 215 137 216 308 329 350 351 344 87 85
332 325 332 328 319 305 174 179 184 161 161 175 187 199 204 201 210 215 219 216 196 162 156 170 175 171 188 187 185 181 187 186 189 187 184 187 184 181 183 184 183 178 183 187 176 178 181 186 189 192 192 197 196 208 201 190 199 169 183 145 147 129 72 89 62 113 44 16 180 190 191 179 195 180 194 193 19 262 279 296 310 294 188 105 95
354 349 356 354 348 15 148 161 195 166 160 172 184 199 202 206 214 219 225 223 203 176 180 183 169 172 191 186 185 187 181 195 188 191 193 187 189 186 183 187 184 184 184 182 188 182 182 184 183 186 193 195 195 194 206 192 189 177 184 180 171 174 171 175 181 186 167 155 140 240 194 207 192 167 191 343 13 295 283 282 237 179 147 124 124